Date,TemperatureHighF,TemperatureAvgF,TemperatureLowF,DewpointHighF,DewpointAvgF,DewpointLowF,HumidityHigh,HumidityAvg,HumidityLow,PressureMaxIn,PressureMinIn,WindSpeedMaxMPH,WindSpeedAvgMPH,GustSpeedMaxMPH,PrecipitationSumIn
2013-1-1,21.7,13.6,8.4,10.3,4.4,1.6,73,66,57,29.50,29.38,7,0,7,0.00
2013-1-2,34.3,24.8,9.3,23.0,15.9,2.0,77,69,63,29.43,29.27,10,2,10,0.00
2013-1-3,29.3,24.2,12.6,24.0,15.7,5.9,81,70,60,29.58,29.34,12,2,12,0.00
2013-1-4,36.3,26.7,11.1,26.0,19.0,4.5,79,73,66,29.54,29.43,13,2,13,0.00
2013-1-5,37.9,32.7,21.4,32.6,27.6,16.2,85,82,76,29.45,29.20,14,3,14,0.03
2013-1-6,30.4,24.0,17.8,22.7,16.3,12.0,78,72,66,29.55,29.23,10,2,10,0.00
2013-1-7,41.7,32.4,19.9,29.3,24.0,13.6,80,71,61,29.51,29.29,16,5,16,0.00
2013-1-8,44.6,36.5,28.0,33.2,28.5,22.2,79,73,64,29.33,29.23,12,4,12,0.00
2013-1-9,48.0,38.3,29.8,35.5,29.5,24.8,83,71,58,29.69,29.27,11,1,11,0.00
2013-1-10,40.5,37.1,30.4,36.0,29.4,24.3,87,74,60,29.67,29.02,10,2,10,0.63
2013-1-11,51.6,47.1,39.9,48.3,43.6,36.3,90,88,84,29.00,28.85,15,4,15,0.03
2013-1-12,48.6,30.3,22.8,44.0,23.0,17.0,84,74,66,29.26,28.89,8,3,8,0.00
2013-1-13,23.9,17.7,11.5,16.7,8.7,4.1,80,68,60,29.51,29.18,13,2,13,0.00
2013-1-14,29.5,18.9,8.2,15.5,9.2,2.2,77,66,55,29.70,29.50,6,0,6,0.00
2013-1-15,33.1,22.9,10.8,19.0,12.6,4.3,77,65,53,29.64,29.36,8,1,8,0.00
2013-1-16,38.3,30.7,15.6,28.5,22.2,8.7,76,71,61,29.34,29.10,17,3,17,0.03
2013-1-17,36.0,28.5,22.3,30.1,16.3,13.5,79,61,48,29.64,29.33,9,2,9,0.00
2013-1-18,48.0,39.1,23.4,34.7,28.7,15.4,75,66,59,29.62,29.16,19,6,19,0.00
2013-1-19,53.8,44.4,30.7,39.0,33.2,18.9,76,65,52,29.32,29.02,16,5,16,0.00
2013-1-20,21.7,17.4,12.7,10.1,7.4,3.5,71,65,54,29.58,29.40,8,2,8,0.00
2013-1-21,12.7,7.5,4.1,5.1,-3.5,-5.5,72,60,51,29.57,29.46,14,5,14,0.00
2013-1-22,16.0,11.1,1.6,2.5,-1.0,-7.6,68,58,51,29.65,29.54,15,2,15,0.00
2013-1-23,33.1,23.5,12.0,16.3,10.0,1.2,61,56,48,29.64,29.34,15,4,15,0.00
2013-1-24,24.4,17.5,6.3,8.8,2.7,-5.3,62,52,44,29.85,29.46,12,3,12,0.00
2013-1-25,38.5,28.6,18.1,19.9,14.8,4.7,65,56,46,29.48,29.24,15,4,15,0.00
2013-1-26,34.2,26.4,10.0,15.5,11.9,1.5,69,54,46,29.64,29.47,13,3,13,0.00
2013-1-27,40.6,34.2,28.0,37.0,28.3,15.1,87,79,58,29.49,29.05,21,4,21,0.28
2013-1-28,52.3,45.1,42.1,49.4,41.9,38.5,90,88,86,29.18,28.92,17,2,17,0.00
2013-1-29,58.3,49.3,36.3,55.4,46.3,33.0,91,89,88,28.90,28.68,14,3,14,1.03
2013-1-30,35.8,26.1,16.0,32.6,21.4,9.7,89,82,76,29.03,28.54,15,4,15,0.27
2013-1-31,19.4,11.2,3.4,13.7,2.8,-5.0,79,69,61,29.52,29.03,17,5,17,0.00
2013-2-1,20.8,12.2,-1.1,14.1,2.6,-8.6,75,65,57,29.62,29.35,12,3,12,0.00
2013-2-2,26.6,21.4,18.0,20.4,12.6,9.4,81,69,61,29.35,29.23,13,2,13,0.00
2013-2-3,29.1,24.6,19.2,18.6,15.3,12.6,82,67,60,29.36,29.15,12,3,12,0.00
2013-2-4,31.5,26.0,18.7,22.4,18.4,12.4,77,72,67,29.21,28.99,14,4,14,0.00
2013-2-5,39.0,33.1,18.9,30.2,25.7,12.9,81,74,67,29.32,29.05,14,3,14,0.00
2013-2-6,46.2,37.0,21.7,36.1,29.5,17.1,84,74,65,29.41,29.22,16,4,16,0.00
2013-2-7,38.1,36.1,32.5,34.6,32.4,28.2,88,86,80,29.30,29.10,13,2,13,0.59
2013-2-8,32.4,29.7,28.0,28.1,23.2,21.9,84,77,74,29.57,29.32,13,3,13,0.00
2013-2-9,40.1,33.4,27.1,30.9,26.6,21.9,82,76,69,29.56,29.20,18,5,18,0.00
2013-2-10,49.5,43.2,34.5,46.3,38.4,29.6,90,84,69,29.17,28.62,32,9,32,0.52
2013-2-11,35.4,32.0,29.8,28.0,22.8,21.7,74,69,65,29.33,28.84,23,8,23,0.00
2013-2-12,41.7,33.7,28.0,28.2,24.3,21.0,77,69,57,29.36,29.13,9,2,9,0.00
2013-2-13,45.7,37.5,25.5,33.8,28.9,20.5,82,71,61,29.11,28.94,12,2,12,0.00
2013-2-14,41.5,36.9,30.4,31.4,29.1,25.0,82,73,65,29.27,28.92,14,4,14,0.00
2013-2-15,34.2,26.6,20.1,24.4,14.2,9.6,78,59,46,29.48,29.29,10,2,10,0.00
2013-2-16,29.8,23.2,13.5,16.5,12.3,5.3,71,63,56,29.46,29.37,10,2,10,0.00
2013-2-17,41.5,32.6,15.1,25.3,20.2,7.7,73,60,50,29.39,29.05,19,7,19,0.00
2013-2-18,54.0,41.6,20.5,41.6,33.5,14.2,84,73,61,29.03,28.73,19,4,19,0.34
2013-2-19,25.5,17.9,9.5,13.0,7.5,0.5,74,64,56,29.51,29.05,18,4,18,0.00
2013-2-20,25.5,18.3,4.8,13.2,7.7,-3.2,71,63,55,29.64,29.53,9,0,9,0.00
2013-2-21,29.1,24.6,14.2,22.8,17.9,7.1,83,75,68,29.57,29.09,18,3,18,0.00
2013-2-22,39.4,30.6,24.8,31.2,23.5,18.0,84,75,68,29.20,28.98,11,4,11,0.00
2013-2-23,38.8,30.4,21.2,24.5,19.5,13.4,76,64,55,29.20,29.17,8,2,8,0.00
2013-2-24,43.9,34.3,15.4,27.9,22.8,9.8,78,63,53,29.33,29.22,9,1,9,0.05
2013-2-25,45.9,35.8,22.1,31.8,26.7,16.6,80,70,56,29.33,29.09,11,3,11,0.00
2013-2-26,34.5,32.6,30.7,29.5,27.7,26.3,86,82,73,29.06,28.76,21,8,21,0.05
2013-2-27,37.4,33.1,29.5,30.8,27.9,25.5,85,81,74,29.06,28.87,10,1,10,0.05
2013-2-28,37.8,34.1,30.0,29.5,27.6,25.5,85,77,70,29.32,29.08,12,2,12,0.00
2013-3-1,34.0,28.5,25.3,26.0,20.3,18.5,86,71,60,29.48,29.31,17,5,17,0.00
2013-3-2,32.4,25.5,16.3,19.1,13.6,8.4,77,61,52,29.49,29.43,10,2,10,0.00
2013-3-3,39.7,30.1,12.4,22.3,17.3,6.3,77,59,48,29.42,29.26,8,1,8,0.00
2013-3-4,40.3,33.7,25.9,29.0,25.3,16.4,78,71,63,29.28,29.09,20,4,20,0.05
2013-3-5,37.2,31.9,28.6,28.4,25.6,22.6,85,77,68,29.36,29.10,17,2,17,0.05
2013-3-6,33.6,28.3,22.3,22.7,19.7,16.8,79,70,63,29.57,29.39,12,2,12,0.00
2013-3-7,43.5,32.9,23.5,28.8,22.7,16.8,76,66,55,29.63,29.55,10,1,10,0.00
2013-3-8,46.6,38.5,25.0,33.0,28.9,19.3,80,69,58,29.62,29.43,13,4,13,0.00
2013-3-9,43.3,39.7,35.4,38.8,35.2,30.1,86,84,76,29.39,29.00,14,4,14,0.79
2013-3-10,49.1,45.0,39.6,46.0,41.9,36.3,89,89,85,28.97,28.77,10,1,10,1.65
2013-3-11,38.8,33.2,28.9,35.5,29.0,22.3,89,84,76,29.12,28.83,15,4,15,0.11
2013-3-12,38.1,30.8,25.2,29.9,24.6,18.8,83,78,71,29.36,29.13,15,3,15,0.00
2013-3-13,37.6,30.2,21.0,20.8,17.7,15.2,78,61,47,29.59,29.37,12,3,12,0.00
2013-3-14,51.4,39.8,24.1,35.3,28.4,15.5,74,64,53,29.56,29.28,17,4,17,0.00
2013-3-15,50.7,42.3,30.4,39.4,34.1,25.3,83,73,62,29.27,28.93,12,2,12,0.00
2013-3-16,39.4,36.0,32.9,32.5,29.6,26.1,89,78,67,29.35,28.93,9,3,9,0.00
2013-3-17,42.4,36.2,26.8,28.6,25.0,19.3,75,64,56,29.40,29.12,14,4,14,0.00
2013-3-18,37.2,31.9,23.5,32.1,24.5,13.9,83,74,63,29.16,28.92,20,5,20,0.05
2013-3-19,38.1,29.1,17.8,19.9,14.9,8.3,66,55,45,29.39,29.15,17,5,17,0.00
2013-3-20,29.8,23.0,14.9,17.5,8.5,5.0,66,54,45,29.45,29.33,18,4,18,0.00
2013-3-21,38.8,27.7,12.0,17.8,12.0,3.8,70,53,40,29.34,29.22,8,1,8,0.00
2013-3-22,47.3,35.8,18.7,24.5,19.8,10.8,73,53,39,29.30,29.21,7,1,7,0.00
2013-3-23,48.0,40.2,28.0,26.8,23.2,18.5,69,51,39,29.33,29.20,12,4,12,0.00
2013-3-24,35.2,31.6,29.3,29.3,26.8,23.4,86,82,66,29.23,28.96,5,0,5,0.03
2013-3-25,41.7,35.0,29.1,27.5,24.6,22.7,85,66,56,29.38,29.06,12,3,12,0.13
2013-3-26,43.7,35.4,26.4,28.4,24.9,19.8,78,66,51,29.53,29.38,10,2,10,0.00
2013-3-27,51.4,41.1,30.0,31.8,26.3,21.4,73,56,43,29.58,29.51,10,1,10,0.00
2013-3-28,57.0,45.4,25.5,35.2,29.7,18.3,76,56,42,29.59,29.47,9,1,9,0.00
2013-3-29,61.2,50.4,33.4,37.3,32.4,26.0,75,52,38,29.53,29.42,8,1,8,0.00
2013-3-30,57.4,50.1,37.4,44.6,39.3,28.1,77,67,55,29.42,29.12,16,4,16,0.00
2013-3-31,59.9,50.0,37.2,42.2,35.0,23.4,87,58,40,29.21,29.05,13,2,13,0.00
2013-4-1,43.9,36.3,26.6,22.3,19.4,15.5,71,51,39,29.48,29.24,11,1,11,0.00
2013-4-2,48.0,38.0,21.6,23.9,19.6,13.3,72,49,34,29.56,29.48,12,2,12,0.00
2013-4-3,55.4,43.4,25.2,25.4,20.9,15.0,65,42,30,29.66,29.49,10,1,10,0.00
2013-4-4,63.7,51.2,31.8,34.0,28.4,15.9,61,43,31,29.47,29.23,10,1,10,0.00
2013-4-5,61.9,51.3,35.2,33.8,29.7,25.3,67,45,32,29.44,29.24,12,1,12,0.00
2013-4-6,69.4,61.2,44.4,48.2,41.6,24.3,72,49,40,29.22,28.84,22,6,22,0.03
2013-4-7,69.1,57.7,38.3,47.0,42.2,32.4,80,58,44,29.18,28.98,10,1,10,0.00
2013-4-8,77.2,65.7,51.6,58.4,54.2,41.8,86,68,50,29.09,28.75,22,3,22,1.02
2013-4-9,81.3,66.3,47.1,64.4,56.2,41.3,84,71,54,29.10,28.99,20,4,20,0.03
2013-4-10,45.9,42.3,40.1,40.7,38.4,35.9,88,86,81,29.21,28.91,14,4,14,1.39
2013-4-11,49.3,44.4,37.6,43.8,39.6,31.4,89,83,77,28.91,28.82,20,4,20,0.11
2013-4-12,43.7,39.8,36.9,35.0,32.7,30.5,86,76,67,29.15,28.83,15,5,15,0.00
2013-4-13,55.9,45.9,34.3,37.0,31.6,25.3,78,58,47,29.23,29.14,17,3,17,0.00
2013-4-14,77.4,64.4,43.0,54.5,48.6,35.3,78,58,42,29.15,28.76,23,7,23,0.50
2013-4-15,64.0,53.3,41.7,52.7,44.2,34.9,84,72,51,29.25,28.89,13,1,13,0.03
2013-4-16,52.2,46.3,36.0,38.3,34.5,29.4,79,64,55,29.44,29.23,10,2,10,0.03
2013-4-17,57.0,46.0,41.0,54.1,41.2,33.8,90,83,67,29.42,28.88,22,4,22,1.97
2013-4-18,61.7,52.1,38.3,58.8,48.2,31.1,91,86,75,29.00,28.63,20,5,20,1.98
2013-4-19,40.8,37.6,35.1,30.5,28.2,26.0,77,69,61,29.24,28.84,21,7,21,0.00
2013-4-20,53.8,45.2,29.7,32.8,29.1,23.4,78,54,41,29.57,29.28,9,2,9,0.00
2013-4-21,64.6,55.0,37.6,44.3,38.7,27.3,69,55,47,29.62,29.44,23,8,23,0.00
2013-4-22,73.6,62.7,45.9,47.7,42.5,35.1,70,49,36,29.46,29.20,17,4,17,0.03
2013-4-23,53.4,40.2,38.5,45.8,34.8,32.1,83,81,75,29.26,29.19,13,3,13,0.42
2013-4-24,56.8,46.8,35.2,33.9,31.3,27.7,76,56,39,29.35,29.25,17,4,17,0.00
2013-4-25,61.0,50.1,36.7,35.8,31.8,28.5,77,51,37,29.53,29.33,10,3,10,0.00
2013-4-26,70.9,60.6,43.7,50.1,44.3,31.5,65,56,45,29.49,29.42,20,6,20,0.00
2013-4-27,69.6,61.2,45.3,50.2,47.0,39.2,81,60,49,29.48,29.23,16,2,16,0.00
2013-4-28,77.5,67.3,49.6,53.2,50.0,43.7,81,55,41,29.20,29.05,10,1,10,0.00
2013-4-29,84.0,71.1,49.6,63.3,56.7,43.7,81,62,49,29.11,28.90,17,5,17,0.00
2013-4-30,90.0,79.0,63.1,61.2,57.2,52.1,79,50,33,29.12,28.91,20,5,20,0.00
2013-5-1,90.7,77.4,58.3,60.5,54.9,45.0,72,48,33,29.36,29.13,12,2,12,0.00
2013-5-2,57.0,47.6,39.4,45.1,39.1,35.2,85,72,64,29.47,29.34,19,6,19,0.08
2013-5-3,52.0,42.4,37.6,49.1,38.9,33.5,90,87,85,29.36,29.06,13,4,13,2.13
2013-5-4,68.7,59.3,52.0,60.0,54.1,49.1,91,83,67,29.27,29.06,18,1,18,0.17
2013-5-5,75.9,65.9,50.2,57.0,52.4,46.7,89,64,44,29.26,29.17,11,2,11,0.03
2013-5-6,78.3,68.3,53.8,54.2,50.8,47.4,79,55,39,29.28,29.20,12,2,12,0.00
2013-5-7,83.5,73.1,54.3,53.4,49.3,44.4,69,44,33,29.28,29.21,8,0,8,0.00
2013-5-8,87.3,74.4,55.0,56.3,52.8,44.3,68,49,33,29.27,29.19,8,0,8,0.00
2013-5-9,72.7,64.9,60.4,61.6,58.0,54.2,86,79,66,29.20,29.02,16,1,16,1.66
2013-5-10,59.7,52.7,49.8,55.8,46.6,44.6,88,80,76,29.23,29.03,12,2,12,0.03
2013-5-11,61.5,55.6,45.5,48.6,35.6,28.1,88,49,37,29.36,29.16,20,3,20,0.00
2013-5-12,62.8,54.6,37.0,34.5,31.4,27.5,69,42,33,29.44,29.33,14,1,14,0.00
2013-5-13,76.3,63.1,39.9,45.6,40.6,29.1,69,45,31,29.41,29.17,11,1,11,0.00
2013-5-14,95.5,79.8,54.7,66.4,59.1,41.2,70,51,37,29.14,28.89,19,2,19,0.00
2013-5-15,85.1,77.2,66.7,56.8,53.4,48.6,61,44,35,29.11,28.97,8,0,8,0.00
2013-5-16,90.5,78.9,61.2,60.8,55.5,48.3,67,46,32,29.18,29.07,10,1,10,0.00
2013-5-17,85.8,77.3,62.2,63.9,59.9,53.8,75,56,44,29.22,29.13,10,1,10,0.00
2013-5-18,87.1,78.8,65.1,68.3,63.6,58.7,81,61,50,29.24,29.11,12,1,12,0.00
2013-5-19,89.4,76.4,67.3,72.8,65.3,57.9,82,69,57,29.15,28.87,17,4,17,0.27
2013-5-20,86.4,72.9,62.6,65.4,60.9,56.8,82,67,47,29.01,28.80,13,2,13,0.25
2013-5-21,83.8,74.3,62.1,63.8,60.2,56.0,85,63,50,28.94,28.87,15,2,15,0.00
2013-5-22,70.5,64.6,58.6,56.6,54.1,52.2,82,69,58,29.03,28.88,11,2,11,0.00
2013-5-23,70.9,62.2,55.0,53.9,50.2,44.0,88,67,46,29.49,29.03,13,3,13,0.08
2013-5-24,75.4,63.4,46.6,46.9,43.0,38.8,78,49,34,29.66,29.49,10,1,10,0.00
2013-5-25,58.8,52.0,48.6,47.8,44.1,40.1,81,75,53,29.61,29.45,10,1,10,0.66
2013-5-26,65.5,57.8,50.7,57.7,53.0,46.0,88,84,76,29.45,29.23,16,2,16,2.73
2013-5-27,75.6,65.3,58.3,66.7,60.3,54.8,89,84,72,29.24,29.00,12,1,12,0.82
2013-5-28,79.0,71.9,64.2,71.2,65.8,59.3,88,81,75,29.11,28.92,15,2,15,0.63
2013-5-29,88.3,78.6,62.4,73.1,67.3,58.4,87,69,55,29.13,29.00,14,2,14,0.16
2013-5-30,85.6,73.7,63.3,71.2,64.8,58.6,86,74,59,29.05,28.92,20,4,20,0.84
2013-5-31,79.3,70.0,62.4,68.4,63.0,57.4,88,79,68,29.06,28.92,19,2,19,0.12
2013-6-1,79.9,70.4,63.7,65.4,60.6,56.5,87,72,54,29.04,28.90,10,1,10,0.00
2013-6-2,64.6,60.9,56.5,57.5,49.5,46.7,81,66,57,29.27,29.05,12,2,12,0.00
2013-6-3,77.2,68.0,52.9,53.8,50.9,45.9,78,56,42,29.35,29.23,10,1,10,0.00
2013-6-4,77.4,69.9,55.6,55.8,52.5,46.0,70,55,45,29.37,29.22,15,2,15,0.00
2013-6-5,72.5,66.9,61.0,61.4,58.0,52.2,83,73,68,29.27,29.14,6,1,6,0.08
2013-6-6,71.8,64.6,57.9,61.0,57.1,53.4,86,77,66,29.16,29.10,8,1,8,0.27
2013-6-7,75.4,66.5,56.5,56.4,53.9,51.3,83,65,49,29.20,29.13,10,1,10,0.00
2013-6-8,81.3,73.9,59.2,59.0,55.9,49.9,74,54,46,29.20,29.13,8,1,8,0.00
2013-6-9,77.4,71.1,64.0,63.7,60.4,52.6,79,69,59,29.14,28.99,10,2,10,0.00
2013-6-10,81.1,73.0,61.0,64.2,61.0,56.0,85,67,53,29.13,28.99,8,1,8,0.00
2013-6-11,90.5,79.7,63.7,72.8,67.4,57.7,82,67,56,29.17,29.02,9,1,9,0.03
2013-6-12,93.9,85.3,73.0,75.1,71.1,63.0,78,64,52,29.12,28.86,20,2,20,0.00
2013-6-13,86.5,77.8,65.5,63.0,58.4,54.8,81,53,39,29.25,28.96,11,2,11,0.00
2013-6-14,83.1,75.5,62.6,61.2,58.5,52.9,71,56,47,29.36,29.15,9,1,9,0.00
2013-6-15,83.3,75.9,66.9,71.2,67.1,58.7,83,74,65,29.26,29.11,10,1,10,0.31
2013-6-16,87.3,78.9,65.8,70.3,66.4,60.9,86,67,52,29.20,29.14,9,0,9,0.00
2013-6-17,90.3,82.1,66.6,67.8,63.6,59.9,83,56,38,29.20,29.11,6,1,6,0.00
2013-6-18,84.6,76.1,64.2,63.4,59.6,55.8,77,57,46,29.26,29.11,11,2,11,0.00
2013-6-19,88.7,78.1,59.0,63.9,58.5,48.7,70,52,41,29.34,29.26,6,0,6,0.00
2013-6-20,94.6,84.6,66.4,67.7,64.0,55.0,68,51,40,29.34,29.23,15,2,15,0.00
2013-6-21,87.1,80.1,74.5,72.8,67.5,62.8,73,66,58,29.34,29.14,17,3,17,0.00
2013-6-22,97.0,86.2,76.8,76.7,72.0,65.9,80,63,46,29.28,29.14,17,2,17,0.00
2013-6-23,87.8,80.4,70.7,72.1,67.2,61.8,76,64,56,29.24,29.06,11,2,11,0.00
2013-6-24,91.2,75.3,68.7,73.8,65.7,62.1,82,73,53,29.35,29.11,15,2,15,0.32
2013-6-25,91.6,82.4,69.8,75.9,71.8,64.5,86,71,58,29.14,29.02,12,1,12,0.00
2013-6-26,87.1,79.1,67.8,75.4,70.8,63.1,87,76,66,29.03,28.96,10,0,10,1.07
2013-6-27,88.5,81.3,71.1,72.8,68.8,64.6,85,67,55,29.11,29.02,10,0,10,0.00
2013-6-28,85.8,78.7,67.6,65.2,61.7,59.0,77,57,44,29.04,28.93,12,2,12,0.00
2013-6-29,75.2,69.1,65.5,65.3,61.6,58.3,83,77,65,29.05,28.90,9,2,9,0.38
2013-6-30,80.6,74.6,62.4,62.6,59.7,53.1,83,60,51,29.25,29.05,11,3,11,0.00
2013-7-1,82.0,73.8,60.1,57.9,53.9,49.9,71,51,40,29.31,29.24,9,3,9,0.00
2013-7-2,82.8,74.9,60.1,59.0,56.1,50.6,72,53,42,29.33,29.25,11,2,11,0.00
2013-7-3,83.5,73.7,59.7,59.8,56.3,50.8,74,56,43,29.32,29.25,6,0,6,0.00
2013-7-4,90.1,80.9,63.7,65.2,61.6,51.5,74,53,40,29.31,29.23,8,1,8,0.00
2013-7-5,91.8,82.6,66.9,68.3,63.6,57.8,74,54,42,29.30,29.22,13,2,13,0.00
2013-7-6,93.9,85.2,67.8,70.7,66.9,59.7,76,56,43,29.27,29.18,13,2,13,0.00
2013-7-7,93.6,86.2,70.7,73.0,69.9,62.5,75,59,50,29.23,29.16,11,2,11,0.00
2013-7-8,90.3,82.3,73.9,74.9,71.5,67.3,81,70,60,29.23,29.19,12,2,12,0.19
2013-7-9,91.9,84.1,77.2,78.1,74.3,70.1,81,73,62,29.24,29.11,11,1,11,0.03
2013-7-10,86.4,81.2,69.1,73.4,64.8,58.3,83,58,48,29.26,29.10,12,3,12,0.00
2013-7-11,86.4,78.1,63.5,63.0,59.7,55.5,78,55,42,29.35,29.28,8,1,8,0.00
2013-7-12,90.1,80.2,64.0,62.4,58.8,53.5,69,49,38,29.38,29.30,9,1,9,0.00
2013-7-13,88.3,80.4,65.1,65.3,62.1,53.6,68,54,45,29.38,29.29,8,1,8,0.00
2013-7-14,93.0,85.9,67.6,69.5,66.8,58.8,76,54,43,29.41,29.34,9,2,9,0.00
2013-7-15,96.6,87.4,73.0,74.8,72.1,65.6,79,62,48,29.48,29.41,13,1,13,0.00
2013-7-16,97.0,88.5,76.1,77.0,74.1,69.1,80,63,51,29.53,29.47,10,1,10,0.04
2013-7-17,98.2,89.8,75.7,76.9,73.8,68.6,79,61,47,29.56,29.42,6,1,6,0.01
2013-7-18,99.5,90.1,77.2,77.1,74.1,69.9,79,61,46,29.43,29.21,8,1,8,0.01
2013-7-19,98.2,88.6,76.8,75.5,72.2,68.0,78,60,46,29.20,29.04,10,2,10,0.01
2013-7-20,91.0,84.4,70.9,67.9,65.6,62.7,75,54,43,29.18,29.10,7,1,7,0.01
2013-7-21,87.4,79.2,70.0,71.4,67.5,62.0,81,68,57,29.17,29.07,14,2,14,0.04
2013-7-22,93.4,81.6,67.6,75.1,70.3,62.5,85,70,56,29.15,28.98,13,1,13,0.21
2013-7-23,78.1,73.7,66.6,64.9,61.6,57.4,84,67,54,29.20,29.03,8,2,8,0.00
2013-7-24,81.1,72.6,59.9,59.2,56.7,52.9,79,59,46,29.31,29.21,8,1,8,0.00
2013-7-25,87.1,77.0,60.8,65.0,60.6,52.2,73,58,46,29.34,29.26,8,1,8,0.00
2013-7-26,82.6,71.7,63.9,71.4,62.1,54.5,85,73,51,29.29,29.12,19,2,19,0.63
2013-7-27,69.6,64.4,57.6,54.5,49.6,47.7,81,59,48,29.24,29.19,13,2,13,0.00
2013-7-28,75.0,68.3,55.8,54.8,52.5,47.4,74,58,48,29.29,29.16,10,1,10,0.00
2013-7-29,82.0,72.5,55.8,59.6,56.3,48.6,79,58,43,29.39,29.30,8,1,8,0.00
2013-7-30,69.3,67.0,64.6,63.6,61.6,56.0,88,83,63,29.35,29.25,8,1,8,0.66
2013-7-31,81.7,73.2,66.0,67.9,65.0,62.6,89,76,62,29.30,29.22,6,0,6,0.00
2013-8-1,86.5,77.5,63.3,65.3,62.9,58.2,85,62,47,29.30,29.17,7,0,7,0.00
2013-8-2,88.5,79.2,68.7,70.5,66.1,60.6,79,65,51,29.21,29.11,8,2,8,0.00
2013-8-3,82.9,76.6,64.0,61.5,58.7,56.3,78,55,44,29.38,29.21,9,1,9,0.00
2013-8-4,85.6,77.5,61.5,59.6,57.5,52.1,72,51,40,29.43,29.32,6,1,6,0.00
2013-8-5,79.5,71.6,64.0,68.9,62.7,54.2,80,74,62,29.31,29.09,11,1,11,0.00
2013-8-6,89.8,79.7,67.8,75.3,70.7,63.1,87,75,60,29.13,29.05,7,1,7,0.00
2013-8-7,88.3,81.1,68.2,73.4,68.7,60.5,85,67,51,29.20,29.02,12,2,12,0.00
2013-8-8,85.3,76.3,63.1,67.0,63.5,57.5,83,66,52,29.25,29.18,8,1,8,0.00
2013-8-9,84.4,76.4,66.7,68.0,65.0,59.7,81,68,56,29.31,29.23,7,1,7,0.00
2013-8-10,83.1,75.6,61.0,59.6,57.8,54.5,79,55,42,29.41,29.33,9,2,9,0.00
2013-8-11,88.0,80.2,64.0,66.4,63.8,54.9,75,58,48,29.37,29.26,8,2,8,0.00
2013-8-12,84.7,77.0,67.8,69.3,64.3,57.8,78,66,52,29.26,29.15,10,1,10,0.00
2013-8-13,77.2,70.0,60.4,58.7,54.1,48.9,82,58,43,29.39,29.22,11,2,11,0.00
2013-8-14,78.6,69.8,55.2,55.8,51.6,46.4,73,54,40,29.46,29.36,6,1,6,0.00
2013-8-15,81.7,71.5,60.6,58.0,54.3,49.6,68,55,42,29.41,29.33,7,1,7,0.00
2013-8-16,84.0,73.0,57.6,59.3,55.7,49.3,76,56,39,29.42,29.36,8,1,8,0.00
2013-8-17,85.3,76.1,59.2,61.1,57.5,51.5,78,54,41,29.45,29.38,10,1,10,0.00
2013-8-18,86.7,78.5,59.4,63.9,60.3,51.6,76,55,45,29.44,29.33,9,1,9,0.00
2013-8-19,88.0,78.7,64.9,67.3,63.9,56.0,75,61,50,29.36,29.25,7,1,7,0.00
2013-8-20,91.8,82.1,67.6,69.4,65.7,59.8,77,59,46,29.33,29.24,10,2,10,0.00
2013-8-21,93.2,82.9,69.6,71.6,67.9,61.6,77,62,48,29.31,29.21,11,2,11,0.00
2013-8-22,79.9,76.4,70.7,69.7,66.7,64.0,80,72,64,29.36,29.25,8,1,8,0.00
2013-8-23,89.1,79.1,64.9,69.3,65.2,59.8,85,64,49,29.39,29.31,8,1,8,0.00
2013-8-24,91.9,82.8,66.2,72.6,67.9,56.5,73,61,52,29.45,29.36,13,2,13,0.00
2013-8-25,93.7,84.4,70.2,71.9,68.1,62.5,77,59,44,29.47,29.36,13,2,13,0.00
2013-8-26,96.6,85.1,69.6,75.3,70.1,61.2,76,62,48,29.39,29.23,10,1,10,0.00
2013-8-27,98.4,87.7,74.8,74.1,70.6,65.6,79,58,43,29.25,29.12,15,2,15,0.00
2013-8-28,98.4,87.6,74.8,77.6,72.4,64.1,77,61,51,29.24,29.15,15,1,15,0.00
2013-8-29,93.9,85.6,74.8,76.9,73.0,67.2,79,67,57,29.29,29.19,9,2,9,0.00
2013-8-30,100.9,89.5,75.4,78.2,73.7,69.2,84,62,41,29.19,29.01,12,2,12,0.00
2013-8-31,88.3,81.8,72.1,72.3,69.0,63.3,76,65,58,29.06,29.01,8,2,8,0.00
2013-9-1,90.5,80.8,68.4,72.6,65.9,57.7,87,62,47,29.12,29.00,14,1,14,0.00
2013-9-2,80.8,73.4,61.0,61.6,56.9,52.4,81,58,43,29.25,29.11,9,2,9,0.00
2013-9-3,82.9,70.3,54.1,58.7,54.5,47.8,80,59,42,29.34,29.25,6,1,6,0.00
2013-9-4,88.9,76.8,57.7,63.4,59.0,49.6,76,56,42,29.38,29.29,7,0,7,0.00
2013-9-5,93.0,81.1,66.6,68.4,63.7,55.6,70,57,45,29.43,29.36,8,1,8,0.00
2013-9-6,91.9,80.2,64.4,67.1,62.1,53.4,68,55,43,29.41,29.23,10,2,10,0.00
2013-9-7,94.6,83.4,67.1,72.4,67.4,58.3,74,59,48,29.24,29.09,10,2,10,0.00
2013-9-8,90.0,82.5,73.4,72.2,69.2,66.2,78,65,56,29.21,29.09,16,2,16,0.00
2013-9-9,100.9,87.9,72.7,73.3,69.5,63.1,83,57,40,29.14,29.05,20,2,20,0.00
2013-9-10,99.1,87.9,73.8,68.5,64.9,60.9,66,48,34,29.25,29.15,11,2,11,0.00
2013-9-11,89.4,79.5,73.2,69.6,66.9,62.3,82,66,51,29.30,29.23,7,1,7,0.03
2013-9-12,82.0,74.2,62.1,67.1,54.5,47.7,84,53,34,29.35,29.26,12,3,12,0.00
2013-9-13,73.8,65.0,54.3,48.0,43.1,38.0,72,47,31,29.44,29.34,10,2,10,0.00
2013-9-14,78.6,68.2,48.9,49.9,46.7,37.8,69,47,36,29.41,29.23,11,0,11,0.00
2013-9-15,66.9,62.2,57.4,58.7,54.2,43.0,82,75,53,29.42,29.18,7,0,7,0.08
2013-9-16,71.8,62.8,53.4,54.3,50.7,46.1,85,66,49,29.59,29.42,8,0,8,0.00
2013-9-17,70.7,64.6,51.6,58.6,54.4,44.3,78,70,63,29.53,29.29,8,1,8,0.00
2013-9-18,89.8,77.5,62.2,70.9,65.3,54.2,79,67,52,29.29,29.09,13,1,13,0.00
2013-9-19,94.6,82.2,69.6,71.2,67.2,62.3,82,63,42,29.14,28.98,12,2,12,0.34
2013-9-20,70.7,66.0,58.8,63.3,54.2,49.8,87,66,50,29.15,29.06,11,1,11,0.03
2013-9-21,71.8,63.2,50.4,50.6,48.2,44.4,81,59,46,29.20,29.13,8,0,8,0.00
2013-9-22,76.6,67.5,51.3,53.8,49.8,43.5,75,54,41,29.28,29.18,11,1,11,0.00
2013-9-23,77.4,67.1,50.9,55.0,49.8,42.4,73,55,44,29.29,29.18,13,2,13,0.00
2013-9-24,78.6,68.2,54.3,58.4,52.5,44.9,73,58,47,29.20,29.10,11,2,11,0.00
2013-9-25,81.0,69.7,54.5,57.4,53.0,47.8,78,57,42,29.18,29.11,10,1,10,0.00
2013-9-26,86.2,73.6,55.8,63.3,57.3,48.1,77,58,44,29.25,29.17,14,2,14,0.00
2013-9-27,85.8,74.0,60.1,63.8,55.6,48.3,66,54,41,29.32,29.22,16,3,16,0.00
2013-9-28,81.1,69.0,57.2,64.7,59.0,50.6,83,71,54,29.25,29.12,14,2,14,0.13
2013-9-29,75.0,65.3,49.5,54.2,47.6,42.2,84,55,37,29.32,29.21,8,0,8,0.03
2013-9-30,80.2,68.7,52.0,54.1,50.7,41.7,74,54,39,29.21,29.07,11,2,11,0.00
2013-10-1,84.0,73.1,58.8,66.5,61.2,52.4,87,68,53,29.20,29.11,12,2,12,0.00
2013-10-2,86.2,75.7,62.2,67.3,61.6,55.7,82,63,50,29.29,29.16,10,2,10,0.00
2013-10-3,79.9,72.5,67.3,69.6,65.2,60.7,87,78,68,29.15,29.03,9,1,9,0.34
2013-10-4,83.8,75.2,66.2,71.8,66.7,61.2,87,75,65,29.18,29.08,12,1,12,0.00
2013-10-5,74.5,67.3,53.2,69.2,59.0,43.3,87,75,60,29.11,29.04,11,1,11,0.00
2013-10-6,54.0,49.4,44.4,42.2,39.8,36.4,83,70,58,29.06,28.98,9,1,9,0.00
2013-10-7,73.2,61.5,46.0,49.4,46.2,41.1,86,60,38,29.31,29.06,16,1,16,0.03
2013-10-8,79.9,66.9,49.8,52.8,47.8,41.8,74,52,36,29.39,29.30,13,2,13,0.00
2013-10-9,77.5,65.8,51.6,52.2,46.6,42.8,73,52,35,29.42,29.32,9,1,9,0.00
2013-10-10,79.5,67.8,52.3,57.3,51.4,41.8,70,57,44,29.37,29.22,10,1,10,0.00
2013-10-11,79.3,69.9,57.0,59.6,55.1,50.2,80,61,47,29.24,29.08,17,4,17,0.00
2013-10-12,72.3,64.5,53.4,56.1,44.7,36.6,78,50,34,29.44,29.11,12,1,12,0.00
2013-10-13,68.0,58.8,43.9,42.8,35.9,32.1,66,44,31,29.64,29.45,8,1,8,0.00
2013-10-14,67.1,58.0,43.3,44.7,39.7,30.9,68,51,40,29.59,29.25,14,2,14,0.00
2013-10-15,67.8,59.8,50.0,59.6,49.0,38.8,86,69,48,29.20,29.04,14,3,14,0.13
2013-10-16,52.3,50.6,48.9,43.1,41.9,40.1,75,72,68,29.21,29.13,28,2,28,0.00
2013-10-17,64.6,55.0,47.5,44.9,39.1,33.8,81,57,35,29.18,29.06,11,1,11,0.00
2013-10-18,52.2,47.9,44.4,38.7,36.4,35.1,78,65,56,29.24,29.10,8,1,8,0.00
2013-10-19,56.8,50.4,38.1,37.9,35.0,29.6,75,56,44,29.18,29.04,12,2,12,0.00
2013-10-20,64.9,56.6,43.0,45.5,41.7,33.2,73,58,47,29.09,28.94,8,1,13,0.00
2013-10-21,53.4,45.2,37.2,40.0,27.6,23.3,69,51,38,29.25,29.09,15,1,15,0.00
2013-10-22,39.4,37.8,36.1,34.1,31.7,24.5,84,79,60,29.22,29.09,9,2,9,0.24
2013-10-23,45.1,39.5,31.3,34.0,29.3,25.2,81,67,51,29.30,29.22,8,1,8,0.00
2013-10-24,42.1,37.7,32.2,28.9,23.8,21.5,68,57,51,29.58,29.31,11,1,11,0.00
2013-10-25,55.9,43.6,28.8,34.2,27.5,21.4,77,55,36,29.64,29.33,19,2,19,0.00
2013-10-26,54.7,48.1,37.9,35.7,30.2,24.9,64,50,42,29.35,29.16,12,2,12,0.00
2013-10-27,59.2,48.5,31.6,35.4,31.0,23.0,72,52,40,29.32,29.17,10,2,10,0.00
2013-10-28,63.3,50.4,36.3,37.8,33.8,24.9,76,55,37,29.53,29.26,10,3,10,0.00
2013-10-29,57.9,48.7,37.9,45.2,38.4,32.2,82,68,52,29.52,29.31,13,2,13,0.00
2013-10-30,59.7,55.9,51.1,56.7,52.7,45.8,90,89,82,29.30,28.97,12,2,12,1.76
2013-10-31,61.7,52.5,44.2,59.0,48.9,40.3,91,87,85,28.93,28.59,9,1,9,0.24
2013-11-1,49.6,46.5,43.0,42.7,41.2,38.4,88,82,75,29.02,28.74,9,1,9,0.03
2013-11-2,52.5,44.8,37.0,39.7,34.4,29.0,84,68,53,29.38,29.02,10,0,10,0.00
2013-11-3,56.8,47.0,33.6,38.8,33.9,27.5,79,61,48,29.48,29.33,15,3,15,0.00
2013-11-4,57.4,51.3,45.0,43.3,40.3,34.5,71,66,59,29.37,29.25,17,3,17,0.00
2013-11-5,54.3,52.7,50.7,50.8,47.9,42.9,88,84,71,29.43,29.09,17,3,17,0.08
2013-11-6,55.9,42.3,32.2,53.0,35.1,25.5,90,76,64,29.46,29.02,10,1,10,0.25
2013-11-7,46.8,37.4,29.3,34.3,29.3,23.6,82,73,60,29.51,29.46,8,1,8,0.00
2013-11-8,48.0,43.1,29.3,34.4,31.5,23.8,80,64,55,29.53,29.11,23,4,23,0.00
2013-11-9,59.7,51.7,42.4,40.5,36.9,31.7,73,58,47,29.43,29.10,17,3,17,0.00
2013-11-10,50.9,42.7,31.6,33.9,29.9,24.0,75,61,51,29.62,29.43,12,1,12,0.00
2013-11-11,49.1,38.0,22.6,36.7,28.7,15.3,82,69,59,29.80,29.30,20,5,20,0.00
2013-11-12,33.1,25.8,17.4,19.9,14.5,9.6,72,62,50,29.99,29.81,8,1,8,0.00
2013-11-13,44.2,34.0,19.2,23.2,18.9,11.9,74,55,41,29.83,29.36,20,5,20,0.00
2013-11-14,53.4,43.8,33.1,31.6,26.5,18.7,62,51,42,29.34,29.14,18,4,18,0.00
2013-11-15,56.3,45.1,35.4,36.2,31.1,22.5,68,58,46,29.19,29.08,17,4,17,0.00
2013-11-16,60.1,55.1,40.8,54.1,49.8,33.3,85,83,73,29.06,28.73,27,7,27,0.00
2013-11-17,68.9,53.1,42.6,61.7,46.2,36.5,89,77,68,29.11,28.43,17,6,17,0.08
2013-11-18,46.9,39.9,30.0,35.1,29.7,22.8,81,67,54,29.51,29.12,13,2,13,0.00
2013-11-19,48.7,38.7,28.2,32.4,27.4,22.1,79,65,51,29.56,29.40,17,3,17,0.00
2013-11-20,40.1,37.7,35.4,35.0,30.9,27.2,84,77,68,29.41,29.23,16,5,16,0.36
2013-11-21,44.8,42.1,39.4,40.2,37.3,35.0,86,83,79,29.50,29.26,9,2,9,0.00
2013-11-22,38.1,31.5,22.6,34.3,25.0,16.8,86,77,70,29.75,29.52,14,3,14,0.00
2013-11-23,23.9,19.6,13.3,14.5,8.8,4.5,78,63,51,29.97,29.73,14,4,14,0.00
2013-11-24,31.6,23.9,9.5,14.9,11.1,2.5,74,58,46,29.95,29.55,12,3,12,0.00
2013-11-25,36.0,31.7,22.3,25.9,21.7,12.0,72,66,60,29.53,29.31,14,4,14,0.00
2013-11-26,32.7,26.6,16.5,25.1,15.4,5.8,78,63,46,29.49,29.30,15,3,15,0.00
2013-11-27,29.5,21.8,12.0,12.4,8.6,3.1,68,57,47,29.56,29.39,10,2,10,0.00
2013-11-28,37.2,29.0,19.8,20.6,16.1,9.8,69,59,49,29.71,29.32,12,2,12,0.00
2013-11-29,38.8,30.2,15.8,22.7,18.5,8.9,76,62,50,29.80,29.53,13,4,13,0.00
2013-11-30,50.7,40.2,27.7,34.6,29.3,20.3,77,65,54,29.51,29.27,14,3,14,0.00
2013-12-1,48.4,40.4,30.4,33.4,29.3,24.4,81,65,53,29.35,29.16,8,1,8,0.00
2013-12-2,46.0,40.2,34.3,35.0,32.4,26.5,82,74,64,29.14,28.86,14,4,14,0.00
2013-12-3,48.0,43.7,36.7,44.0,39.8,32.0,88,86,82,28.89,28.80,14,3,14,0.00
2013-12-4,51.6,44.3,28.8,48.7,40.7,22.8,90,87,78,29.06,28.71,15,3,15,0.00
2013-12-5,26.8,20.4,17.2,20.3,10.8,8.4,78,66,61,29.54,29.08,14,3,14,0.00
2013-12-6,19.4,14.3,11.3,8.5,4.0,2.0,70,63,53,29.80,29.52,10,2,10,0.00
2013-12-7,19.6,13.2,3.4,5.1,1.6,-3.9,71,60,50,29.95,29.77,10,2,10,0.00
2013-12-8,25.3,22.2,13.8,18.5,15.3,3.9,79,75,63,29.72,29.21,10,1,13,0.00
2013-12-9,21.7,10.3,1.6,16.2,1.4,-7.0,79,67,56,29.49,29.23,13,2,13,0.00
2013-12-10,23.9,18.8,1.0,11.3,7.6,-6.7,71,62,54,29.49,29.25,16,4,16,0.00
2013-12-11,19.9,11.4,1.6,12.1,0.5,-9.2,78,61,50,29.82,29.45,14,2,14,0.00
2013-12-12,28.8,18.3,2.1,17.0,8.3,-7.0,72,65,58,29.76,29.40,16,2,16,0.00
2013-12-13,38.5,29.0,16.2,27.3,21.6,9.1,84,74,64,29.38,29.20,9,1,9,0.00
2013-12-14,29.7,25.7,16.3,23.9,19.9,10.0,85,79,75,29.31,29.17,11,2,11,0.00
2013-12-15,21.7,17.6,10.9,11.1,8.2,3.2,77,67,60,29.36,29.28,9,1,9,0.00
2013-12-16,25.9,21.3,14.7,18.2,14.0,8.2,80,73,66,29.32,29.21,8,1,8,0.00
2013-12-17,38.5,28.7,17.4,28.0,19.6,12.0,82,69,54,29.41,29.27,13,3,13,0.11
2013-12-18,39.4,32.1,17.2,28.5,22.0,9.7,74,66,56,29.39,29.02,20,5,20,0.00
2013-12-19,44.4,37.6,32.4,35.6,31.4,26.6,87,79,71,29.10,28.96,8,1,8,0.00
2013-12-20,34.0,29.8,28.0,30.5,26.4,24.1,89,87,85,29.09,28.94,10,3,11,0.05
2013-12-21,30.7,28.6,26.1,26.9,24.7,22.0,88,85,82,29.09,28.86,11,3,11,0.00
2013-12-22,30.9,25.5,17.2,25.7,19.8,11.0,87,79,74,29.44,28.87,8,1,8,0.00
2013-12-23,16.2,3.7,-1.5,10.3,-4.5,-9.6,77,68,64,29.73,29.45,13,3,13,0.00
2013-12-24,18.7,9.9,-6.9,11.4,0.7,-14.3,74,66,58,29.77,29.50,14,3,14,0.00
2013-12-25,30.0,27.1,19.6,23.5,21.2,12.4,81,78,73,29.45,29.36,11,3,11,0.00
2013-12-26,39.4,30.0,16.5,28.5,22.6,10.8,80,74,65,29.47,29.33,11,2,11,0.16
2013-12-27,41.2,33.7,22.1,31.0,26.5,17.7,83,75,66,29.50,29.34,10,2,10,0.09
2013-12-28,47.8,41.2,32.4,36.2,32.2,27.5,82,71,63,29.32,29.05,12,4,12,0.00
2013-12-29,37.0,17.6,3.0,29.4,9.7,-6.4,82,71,64,29.50,29.04,18,3,18,0.00
2013-12-30,16.3,10.3,-1.1,7.8,0.8,-10.0,72,65,56,29.55,29.39,6,1,6,0.00
2013-12-31,24.4,15.9,4.8,12.6,7.3,-1.8,75,69,60,29.58,29.42,12,2,12,0.00
2014-1-1,16.2,13.6,10.2,10.3,7.5,4.2,79,76,74,29.45,29.38,14,6,14,0.00
2014-1-2,16.7,10.1,-0.6,6.0,1.1,-8.0,73,67,62,29.67,29.41,12,2,12,0.00